+ View the NASA Portal
+ Center for Near-Earth Object Studies
IMPORTANT:
The SSD Announcement email list is now available. Major changes are coming in the near future, including possible hostname and/or URL changes. To be notified of such changes, subscribe to this email list.
Please visit
this page
for more details.
Don't show this message again
JPL Small-Body Database Browser
Search:
[
help
]
379676 (2011 FC19)
Classification:
Main-belt Asteroid
SPK-ID:
2379676
[
Ephemeris
|
Orbit Diagram
|
Orbital Elements
|
Mission Design
|
Physical Parameters
|
Discovery Circumstances
|
Close-Approach Data
]
[ show orbit diagram ]
Orbital Elements at Epoch 2458600.5 (2019-Apr-27.0) TDB
Reference:
JPL 11
(heliocentric ecliptic J2000)
Element
Value
Uncertainty (1-sigma)
Units
e
.134291136188407
1.4697e-07
a
2.673819522754405
6.1963e-08
au
q
2.314749261080971
4.3123e-07
au
i
3.205219972601424
1.1433e-05
deg
node
124.3182957903044
0.00014247
deg
peri
47.34443020017044
0.00014915
deg
M
319.8762087896461
4.2386e-05
deg
t
p
2458778.490172047348
(2019-Oct-21.99017205)
0.00019132
TDB
period
1596.969279426175
4.37
5.5512e-05
1.52e-07
d
yr
n
.2254270039116567
7.8361e-09
deg/d
Q
3.032889784427838
7.0284e-08
au
Orbit Determination Parameters
# obs. used (total)
91
data-arc span
5700 days (15.61 yr)
first obs. used
2002-02-16
last obs. used
2017-09-25
planetary ephem.
DE431
SB-pert. ephem.
SB431-N16
condition code
0
norm. resid. RMS
.61044
source
ORB
producer
Otto Matic
solution date
2017-Oct-09 19:32:08
Additional Information
Earth MOID
= 1.32243 au
Jupiter MOID
= 1.93565 au
T_jup
= 3.365
[ show covariance matrix ]
[
Ephemeris
|
Orbit Diagram
|
Orbital Elements
|
Mission Design
|
Physical Parameters
|
Discovery Circumstances
|
Close-Approach Data
]
Physical Parameter Table
Parameter
Symbol
Value
Units
Sigma
Reference
Notes
absolute magnitude
H
17.2
n/a
MPO418931
379676 (2011 FC19)
Discovered 2007-May-10 by Mt. Lemmon Survey at Mount Lemmon
Reference:
Last Updated:
2013-11-20
[ show close-approach data ]
[
Ephemeris
|
Orbit Diagram
|
Orbital Elements
|
Mission Design
|
Physical Parameters
|
Discovery Circumstances
|
Close-Approach Data
]
2019-Dec-07 04:21 UT
(server date/time)
Site Manager:
Ryan S. Park
Webmaster
:
Alan B. Chamberlin